Regional Weather Roundup
Issued by NWS

Home | Current Version | Previous Version | Text Only | Print | Product List | Glossary On
Versions: 1 2 3 4 5 6 7 8 9 10 11 12 13 14 15 16 17 18 19 20 21 22 23 24 25 26 27 28 29 30 31 32 33 34 35 36 37 38 39 40 41 42 43 44 45 46 47 48 49 50
000
ASUS43 KDTX 221410
RWRMI
MICHIGAN HOURLY REGIONAL WEATHER ROUNDUP
NATIONAL WEATHER SERVICE DETROIT/PONTIAC MI
900 AM EST MON DEC 22 2014

NOTE: "FAIR" INDICATES FEW OR NO CLOUDS BELOW 12,000 FEET WITH NO
SIGNIFICANT WEATHER AND/OR OBSTRUCTION TO VISIBILITY.

MIZ047>049-052>055-059>063-066>070-074>076-081>083-221500-
SOUTHEAST LOWER MICHIGAN

CITY           SKY/WX    TMP DP  RH WIND       PRES   REMARKS
ADRIAN         CLEAR     26  24  92 E7        30.07F FOG     WCI  18
ALMA           PTCLDY    26  25  94 E5        30.08S FOG     WCI  21
ANN ARBOR      CLEAR     26  24  92 E3        30.08F FOG
BAD AXE        MOCLDY    28  25  89 CALM      30.12S
CARO           PTCLDY    28  24  84 E6        30.10F HAZE    WCI  21
DETROIT CITY   CLEAR     29  22  75 CALM      30.11F HAZE
DETROIT        PTCLDY    28  24  85 NE3       30.10F FOG
FLINT          PTCLDY    28  23  81 E3        30.09S HAZE
GROSSE ILE     CLEAR     28  25  86 NE3       30.09S FOG
HILLSDALE      CLEAR     26  24  90 E8        30.02F FOG     WCI  18
HOWELL         CLEAR     26  25  94 SE8       30.06F FOG     WCI  18

CITY           SKY/WX    TMP DP  RH WIND       PRES   REMARKS
JACKSON        CLEAR     26  24  92 SE8       30.04F FOG     WCI  18
LAMBERTVILLE   CLEAR     28  25  86 CALM      30.08F FOG
LANSING        CLEAR     27  24  89 SE8       30.07S FOG     WCI  19
LAPEER         FAIR      27  24  89 CALM      30.10S
MASON          CLEAR     27  24  89 SE8       30.06S FOG     WCI  18
MONROE         CLEAR     27  25  93 E5        30.07F FOG     WCI  21
MT. CLEMENS    PTCLDY    31  31  99 E7        30.09S WCI  24
PONTIAC        MOCLDY    27  24  89 SE5       30.08S FOG     WCI  22
PORT HOPE        N/A     31  25  78 S3        30.12S
PORT HURON     PTCLDY    28  27  93 E5        30.12F WCI  23
TRI CITIES     PTCLDY    27  23  85 E6        30.10S FOG     WCI  20
TROY           CLEAR     30  25  82 CALM      30.12S HAZE
SAGINAW HB     PTCLDY    28  27  93 E5        30.09S FOG     WCI  23
$$
MIZ043>046-050>051-056>058-064>065-071>073-077>080-221500-
SOUTHWEST LOWER MICHIGAN

CITY           SKY/WX    TMP DP  RH WIND       PRES   REMARKS
BATTLE CREEK   CLEAR     27  22  81 E6        30.02F HAZE    WCI  20
BENTON HARBOR  CLOUDY    29  25  85 SE9       29.97F FOG     WCI  20
BIG RAPIDS     MOCLDY    28  26  94 SE6       30.03S FOG     WCI  21
COLDWATER      CLEAR     27  23  86 E8        30.01F FOG     WCI  18
FREMONT        FAIR      28  24  82 SE8       30.02S HAZE    WCI  20
HOLLAND        CLEAR     30  23  75 E9        29.99F WCI  22
GRAND RAPIDS   PTCLDY    27  22  81 SE12      30.03F HAZE    WCI  17
IONIA          FAIR      27  25  91 SE7       30.05S FOG     WCI  19
KALAMAZOO      CLEAR     27  22  81 E7        30.00F HAZE    WCI  19
LUDINGTON      MOCLDY    31  25  78 SE7       30.00F HAZE    WCI  24
MARSHALL       CLEAR     25  22  88 E3        30.03F FOG
MOUNT PLEASANT PTCLDY    25  23  95 CALM      30.07S FOG
MUSKEGON       PTCLDY    29  23  78 SE10      30.02S HAZE    WCI  20
SOUTH HAVEN    CLOUDY    30  25  81 SE7       29.98F HAZE    WCI  23
$$
MIZ016>042-221500-
NORTHERN LOWER MICHIGAN

CITY           SKY/WX    TMP DP  RH WIND       PRES   REMARKS
ALPENA         CLOUDY    29  24  82 S10       30.11F WCI  20
BEAVER ISLAND  CLOUDY    32  28  83 SE7       30.02S WCI  26
BELLAIRE       CLOUDY    31  25  77 SE7       30.05S WCI  24
CADILLAC       MOCLDY    26  23  89 SE8       30.00S FOG     WCI  17
CHARLEVOIX     CLOUDY    30  25  83 SE9       30.06S HAZE    WCI  22
FRANKFORT      MOCLDY    31  26  80 CALM      30.00S
GAYLORD        CLOUDY    26  23  88 SE14      30.03S FOG     WCI  14
GRAYLING       CLOUDY    28  26  90 SE10      30.05F FOG     WCI  19
HARBOR SPRINGS CLOUDY    29  25  82 E7        30.05S FOG     WCI  22
HOUGHTON LAKE  MOCLDY    25  22  88 SE6       30.06R FOG     WCI  18
MANISTEE       MOCLDY    30  23  74 SE7       30.01S WCI  23
OSCODA         CLOUDY    31  26  82 S3        30.12F
PELLSTON       CLOUDY    29  25  85 SE10      30.06S WCI  20
ROGERS CITY    CLOUDY    29  27  90 SE9       30.10F WCI  21
TRAVERSE CITY  CLOUDY    30  24  78 S6        30.02S WCI  24
$$
MIZ007>008-015-221500-
EASTERN UPPER MICHIGAN

CITY           SKY/WX    TMP DP  RH WIND       PRES   REMARKS
KINROSS        CLOUDY    30  28  93 S12       30.05S WCI  21
MACKINAC ISLAN CLOUDY    31  26  81 SE9G17    30.06R WCI  23
NEWBERRY       CLOUDY    30  28  93 SE12      30.01R WCI  21
S. S. MARIE    CLOUDY    32  27  81 SE10      30.06R HAZE    WCI  24
MUNISING         N/A     36  32  85 S8        29.95S WCI  30
$$
MIZ004>006-011>014-085-221500-
CENTRAL UPPER MICHIGAN

CITY           SKY/WX    TMP DP  RH WIND       PRES   REMARKS
MANISTIQUE     CLOUDY    34  32  92 S12       29.99R FOG     WCI  25
ESCANABA       CLOUDY    36  30  80 S15       29.95S WCI  26
MENOMINEE      CLOUDY    36  32  87 S12       29.93S WCI  27
SAWYER-GWINN   CLOUDY    34  32  93 S13G20    29.90S FOG     WCI  25
$$
MIZ001>003-009>011-084-221500-
WESTERN UPPER MICHIGAN

CITY           SKY/WX    TMP DP  RH WIND       PRES   REMARKS
IRON MOUNTAIN  CLOUDY    33  30  88 SE9       29.88S FOG     WCI  25
HOUGHTON       LGT SNOW  32  31  96 S8        29.83S VSB 3/4 WCI  25
COPPER HARBOR    N/A     35  32  88 SW13G21   29.85S WCI  26
IRONWOOD       CLOUDY    34  34 100 SE12G20   29.75S WCI  25
$$

ABBREVIATIONS USED IN REMARKS
   TC - TEMPERATURE IN CELSIUS
  WCI - WIND CHILL INDEX
   HX - HEAT INDEX
  VSB - VISIBILITY




USA.gov is the U.S. government's official web portal to all federal, state and local government web resources and services.